Regional Weather Roundup
Issued by NWS

Home | Current Version | Previous Version | Text Only | Print | Product List | Glossary On
Versions: 1 2 3 4 5 6 7 8 9 10 11 12 13 14 15 16 17 18 19 20 21 22 23 24 25 26 27 28 29 30 31 32 33 34 35 36 37 38 39 40 41 42 43 44 45 46 47 48 49 50
000
ASUS43 KBIS 141620
RWRND

NORTH DAKOTA REGIONAL WEATHER ROUNDUP
NATIONAL WEATHER SERVICE BISMARCK ND
1100 AM CDT MON JUL 14 2014

NOTE: "FAIR" INDICATES FEW OR NO CLOUDS BELOW 12,000 FEET WITH NO
SIGNIFICANT WEATHER AND/OR OBSTRUCTIONS TO VISIBILITY.


NDZ001>003-009>011-017-141700-
NORTHWEST NORTH DAKOTA

CITY           SKY/WX    TMP DP  RH WIND       PRES   REMARKS
WILLISTON      PTSUNNY   62  46  55 NW9       30.36S
MINOT          PTSUNNY   60  45  57 NW17G23   30.29S
MINOT AFB      MOSUNNY   59  46  61 N15       30.30R
$$

NDZ018>021-031>035-040>046-141700-
SOUTHWEST NORTH DAKOTA

CITY           SKY/WX    TMP DP  RH WIND       PRES   REMARKS
BISMARCK       PTSUNNY   62  46  55 N20G28    30.27R
DICKINSON      MOSUNNY   62  48  60 N12       30.32S
GARRISON         N/A     59  48  67 N14       30.29R
HETTINGER ARPT PTSUNNY   58  44  60 N12       30.33S
$$

NDZ004>008-012>016-024-026-027-054-141700-
NORTHEAST NORTH DAKOTA

CITY           SKY/WX    TMP DP  RH WIND       PRES   REMARKS
GRAND FORKS    CLOUDY    56  49  77 N22G35    30.13R
GRND FRKS AFB  PTSUNNY   59  50  72 N20G31    30.14R
DEVILS LAKE    PTSUNNY   57  45  62 N20       30.20S
$$

NDZ022-023-025-028>030-036>039-047>053-141700-
SOUTHEAST NORTH DAKOTA

CITY           SKY/WX    TMP DP  RH WIND       PRES   REMARKS
FARGO          PTSUNNY   59  47  64 NW22G29   30.10R
JAMESTOWN      PTSUNNY   60  46  59 N17G30    30.18R
$$



USA.gov is the U.S. government's official web portal to all federal, state and local government web resources and services.